| time (UTC) | temp F | wind direction | speed knots | gust knots | rain 1hr in | rain 24hr in | rain mn in | humidity % | barometer mb |
| 20260504234630 | 59 | 124 | 10.4 | 15.6 | 0.00 | 0.00 | 0.00 | 45 | 1012.9 |
| 20260504234130 | 59 | 86 | 9.6 | 15.6 | 0.00 | 0.00 | 0.00 | 44 | 1012.8 |
| 20260504233631 | 60 | 83 | 9.6 | 15.6 | 0.00 | 0.00 | 0.00 | 44 | 1012.9 |
| 20260504232632 | 60 | 46 | 11.3 | 20.0 | 0.00 | 0.00 | 0.00 | 44 | 1012.9 |
| 20260504232131 | 59 | 80 | 11.3 | 15.6 | 0.00 | 0.00 | 0.00 | 45 | 1012.9 |
| 20260504231631 | 60 | 22 | 12.2 | 19.1 | 0.00 | 0.00 | 0.00 | 46 | 1013.2 |
| 20260504231132 | 60 | 30 | 12.2 | 19.1 | 0.00 | 0.00 | 0.00 | 46 | 1013.1 |
| 20260504230631 | 60 | 60 | 11.3 | 19.1 | 0.00 | 0.00 | 0.00 | 46 | 1013.0 |
| 20260504230133 | 60 | 84 | 12.2 | 19.1 | 0.00 | 0.00 | 0.00 | 46 | 1013.1 |
| 20260504225632 | 60 | 13 | 12.2 | 18.2 | 0.00 | 0.00 | 0.00 | 44 | 1012.9 |
| 20260504225129 | 60 | 67 | 10.4 | 18.2 | 0.00 | 0.00 | 0.00 | 44 | 1012.7 |
| 20260504224629 | 60 | 44 | 11.3 | 19.1 | 0.00 | 0.00 | 0.00 | 45 | 1013.0 |
| 20260504224131 | 60 | 84 | 13.0 | 19.1 | 0.00 | 0.00 | 0.00 | 45 | 1013.1 |
| 20260504223629 | 60 | 200 | 13.0 | 19.1 | 0.00 | 0.00 | 0.00 | 43 | 1012.9 |
| 20260504223130 | 60 | 88 | 12.2 | 17.4 | 0.00 | 0.00 | 0.00 | 46 | 1012.9 |
| 20260504222629 | 60 | 11 | 11.3 | 16.5 | 0.00 | 0.00 | 0.00 | 45 | 1012.9 |
| 20260504222129 | 60 | 62 | 11.3 | 17.4 | 0.00 | 0.00 | 0.00 | 47 | 1013.0 |
| 20260504221630 | 60 | 112 | 10.4 | 17.4 | 0.00 | 0.00 | 0.00 | 43 | 1012.8 |
| 20260504221129 | 60 | 77 | 10.4 | 16.5 | 0.00 | 0.00 | 0.00 | 45 | 1013.1 |
| 20260504220117 | 60 | 91 | 10.4 | 15.6 | 0.00 | 0.00 | 0.00 | 45 | 1012.9 |
| 20260504215115 | 60 | 74 | 12.2 | 18.2 | 0.00 | 0.00 | 0.00 | 44 | 1012.9 |
| 20260504214116 | 62 | 75 | 9.6 | 14.8 | 0.00 | 0.00 | 0.00 | 42 | 1012.9 |
| 20260504213615 | 61 | 58 | 9.6 | 14.8 | 0.00 | 0.00 | 0.00 | 42 | 1012.8 |
| 20260504213115 | 61 | 67 | 7.8 | 13.9 | 0.00 | 0.00 | 0.00 | 41 | 1012.8 |
| 20260504212613 | 62 | 72 | 7.0 | 13.0 | 0.00 | 0.00 | 0.00 | 39 | 1012.7 |
| 20260504212112 | 62 | 79 | 7.0 | 13.0 | 0.00 | 0.00 | 0.00 | 41 | 1012.6 |
| 20260504211610 | 62 | 97 | 6.1 | 11.3 | 0.00 | 0.00 | 0.00 | 40 | 1012.7 |
| 20260504211107 | 62 | 70 | 5.2 | 10.4 | 0.00 | 0.00 | 0.00 | 40 | 1012.7 |
| 20260504210607 | 62 | 95 | 6.1 | 11.3 | 0.00 | 0.00 | 0.00 | 41 | 1012.7 |
| 20260504210106 | 62 | 18 | 7.8 | 11.3 | 0.00 | 0.00 | 0.00 | 43 | 1012.8 |
| 20260504205605 | 62 | 83 | 8.7 | 13.9 | 0.00 | 0.00 | 0.00 | 41 | 1012.7 |
| 20260504205105 | 62 | 86 | 7.8 | 13.9 | 0.00 | 0.00 | 0.00 | 41 | 1012.8 |
| 20260504204606 | 63 | 52 | 4.3 | 10.4 | 0.00 | 0.00 | 0.00 | 39 | 1012.9 |
| 20260504204105 | 63 | 69 | 2.6 | 7.0 | 0.00 | 0.00 | 0.00 | 38 | 1012.8 |
| 20260504203605 | 63 | 338 | 1.7 | 7.0 | 0.00 | 0.00 | 0.00 | 37 | 1012.7 |
| 20260504203102 | 63 | 38 | 3.5 | 7.8 | 0.00 | 0.00 | 0.00 | 40 | 1012.7 |
| 20260504202601 | 63 | 55 | 3.5 | 8.7 | 0.00 | 0.00 | 0.00 | 42 | 1012.7 |
| 20260504201601 | 62 | 72 | 6.1 | 9.6 | 0.00 | 0.00 | 0.00 | 42 | 1012.8 |
| 20260504201101 | 62 | 74 | 6.1 | 9.6 | 0.00 | 0.00 | 0.00 | 44 | 1012.9 |
| 20260504200601 | 62 | 51 | 4.3 | 9.6 | 0.00 | 0.00 | 0.00 | 42 | 1012.9 |
| 20260504200101 | 62 | 73 | 4.3 | 9.6 | 0.00 | 0.00 | 0.00 | 43 | 1012.8 |
| 20260504195601 | 62 | 140 | 5.2 | 10.4 | 0.00 | 0.00 | 0.00 | 42 | 1012.8 |
| 20260504194603 | 62 | 37 | 6.1 | 12.2 | 0.00 | 0.00 | 0.00 | 38 | 1012.9 |
| 20260504194101 | 64 | 70 | 4.3 | 7.8 | 0.00 | 0.00 | 0.00 | 43 | 1012.7 |
| 20260504193602 | 64 | 36 | 3.5 | 7.8 | 0.00 | 0.00 | 0.00 | 40 | 1012.8 |
| 20260504193102 | 64 | 317 | 4.3 | 10.4 | 0.00 | 0.00 | 0.00 | 40 | 1012.9 |
| 20260504192602 | 63 | 121 | 6.1 | 10.4 | 0.00 | 0.00 | 0.00 | 38 | 1012.8 |
| 20260504192101 | 63 | 82 | 6.1 | 11.3 | 0.00 | 0.00 | 0.00 | 39 | 1012.9 |
| 20260504191600 | 63 | 74 | 4.3 | 11.3 | 0.00 | 0.00 | 0.00 | 39 | 1013.1 |
| 20260504191103 | 64 | 86 | 3.5 | 9.6 | 0.00 | 0.00 | 0.00 | 39 | 1013.0 |
| 20260504190601 | 63 | 78 | 3.5 | 8.7 | 0.00 | 0.00 | 0.00 | 40 | 1013.0 |
| 20260504190105 | 63 | 109 | 4.3 | 8.7 | 0.00 | 0.00 | 0.00 | 41 | 1013.2 |
| 20260504185102 | 62 | 28 | 5.2 | 11.3 | 0.00 | 0.00 | 0.00 | 40 | 1013.2 |
| 20260504184600 | 62 | 48 | 3.5 | 9.6 | 0.00 | 0.00 | 0.00 | 40 | 1013.3 |
| 20260504184101 | 62 | 101 | 4.3 | 9.6 | 0.00 | 0.00 | 0.00 | 39 | 1013.2 |
| 20260504183102 | 61 | 67 | 7.0 | 11.3 | 0.00 | 0.00 | 0.00 | 41 | 1013.3 |
| 20260504182601 | 61 | 80 | 7.0 | 11.3 | 0.00 | 0.00 | 0.00 | 41 | 1013.4 |
| 20260504182101 | 61 | 103 | 7.8 | 13.0 | 0.00 | 0.00 | 0.00 | 43 | 1013.4 |
| 20260504181603 | 61 | 296 | 7.0 | 13.0 | 0.00 | 0.00 | 0.00 | 44 | 1013.4 |
| 20260504181102 | 61 | 74 | 6.1 | 10.4 | 0.00 | 0.00 | 0.00 | 42 | 1013.3 |
| 20260504175602 | 61 | 42 | 7.0 | 12.2 | 0.00 | 0.00 | 0.00 | 44 | 1013.4 |
| 20260504175059 | 60 | 56 | 8.7 | 12.2 | 0.00 | 0.00 | 0.00 | 43 | 1013.3 |
| 20260504174554 | 61 | 65 | 7.0 | 11.3 | 0.00 | 0.00 | 0.00 | 42 | 1013.3 |
| 20260504174048 | 61 | 55 | 3.5 | 11.3 | 0.00 | 0.00 | 0.00 | 44 | 1013.3 |
| 20260504173542 | 62 | 73 | 1.7 | 5.2 | 0.00 | 0.00 | 0.00 | 43 | 1013.3 |
| 20260504173035 | 61 | 67 | 0.9 | 5.2 | 0.00 | 0.00 | 0.00 | 42 | 1013.3 |
| 20260504172533 | 62 | 76 | 1.7 | 7.0 | 0.00 | 0.00 | 0.00 | 44 | 1013.3 |
| 20260504172034 | 60 | 267 | 2.6 | 7.8 | 0.00 | 0.00 | 0.00 | 42 | 1013.3 |
| 20260504171535 | 60 | 271 | 1.7 | 7.8 | 0.00 | 0.00 | 0.00 | 41 | 1013.3 |
| 20260504171033 | 61 | 194 | 1.7 | 3.5 | 0.00 | 0.00 | 0.00 | 41 | 1013.3 |
| 20260504151033 | 57 | 100 | 6.1 | 11.3 | 0.00 | 0.00 | 0.00 | 47 | 1013.4 |
| 20260504150533 | 56 | 23 | 7.0 | 12.2 | 0.00 | 0.00 | 0.00 | 47 | 1013.3 |
| 20260504140532 | 55 | 89 | 10.4 | 18.2 | 0.00 | 0.00 | 0.00 | 48 | 1013.1 |
| 20260504130531 | 54 | 86 | 11.3 | 19.1 | 0.00 | 0.00 | 0.00 | 48 | 1012.7 |
| 20260504110525 | 56 | 78 | 13.9 | 19.1 | 0.00 | 0.00 | 0.00 | 45 | 1012.1 |
| 20260504100517 | 57 | 11 | 10.4 | 20.0 | 0.00 | 0.00 | 0.00 | 43 | 1011.9 |
| 20260504081504 | 60 | 62 | 7.8 | 19.1 | 0.00 | 0.00 | 0.00 | 45 | 1010.3 |
| 20260504081005 | 59 | 89 | 6.1 | 14.8 | 0.00 | 0.00 | 0.00 | 48 | 1010.0 |
| 20260504050444 | 55 | 30 | 0.0 | 0.0 | 0.00 | 0.00 | 0.00 | 62 | 1008.6 |
| 20260504045943 | 56 | 30 | 0.0 | 0.9 | 0.00 | 0.00 | 0.00 | 64 | 1008.5 |
| 20260504045443 | 56 | 30 | 0.0 | 0.9 | 0.00 | 0.00 | 0.00 | 64 | 1008.6 |
| 20260504044943 | 56 | 30 | 0.0 | 0.9 | 0.00 | 0.00 | 0.00 | 65 | 1008.5 |
| 20260504044439 | 57 | 30 | 0.0 | 0.0 | 0.00 | 0.00 | 0.00 | 65 | 1008.5 |
| 20260504043939 | 58 | 30 | 0.0 | 0.0 | 0.00 | 0.00 | 0.00 | 58 | 1008.5 |
| 20260504043444 | 58 | 30 | 0.0 | 0.0 | 0.00 | 0.00 | 0.00 | 55 | 1008.4 |
| 20260504042941 | 59 | 30 | 0.0 | 0.0 | 0.00 | 0.00 | 0.00 | 54 | 1008.4 |
| 20260504042442 | 59 | 30 | 0.0 | 0.9 | 0.00 | 0.00 | 0.00 | 53 | 1008.4 |
| 20260504041942 | 60 | 30 | 0.0 | 0.9 | 0.00 | 0.00 | 0.00 | 52 | 1008.4 |
| 20260504041440 | 60 | 30 | 0.0 | 0.9 | 0.00 | 0.00 | 0.00 | 56 | 1008.4 |
| 20260504040939 | 61 | 30 | 0.0 | 0.9 | 0.00 | 0.00 | 0.00 | 55 | 1008.4 |
| 20260504040439 | 61 | 30 | 0.0 | 0.9 | 0.00 | 0.00 | 0.00 | 55 | 1008.5 |
| 20260504035438 | 62 | 30 | 0.0 | 1.7 | 0.00 | 0.00 | 0.00 | 49 | 1008.5 |
| 20260504034940 | 62 | 30 | 0.0 | 1.7 | 0.00 | 0.00 | 0.00 | 49 | 1008.4 |
| 20260504034439 | 62 | 302 | 0.0 | 1.7 | 0.00 | 0.00 | 0.00 | 48 | 1008.4 |
| 20260504033941 | 62 | 233 | 0.0 | 1.7 | 0.00 | 0.00 | 0.00 | 48 | 1008.3 |
| 20260504033440 | 62 | 227 | 0.0 | 0.9 | 0.00 | 0.00 | 0.00 | 51 | 1008.3 |
| 20260504032434 | 62 | 217 | 0.0 | 0.9 | 0.00 | 0.00 | 0.00 | 52 | 1008.3 |
| 20260504031934 | 62 | 217 | 0.0 | 0.9 | 0.00 | 0.00 | 0.00 | 52 | 1008.2 |
| 20260504030934 | 62 | 217 | 0.0 | 0.9 | 0.00 | 0.00 | 0.00 | 53 | 1008.1 |
| 20260504030434 | 63 | 205 | 0.0 | 0.9 | 0.00 | 0.00 | 0.00 | 52 | 1008.2 |
| 20260504025434 | 64 | 206 | 0.0 | 0.9 | 0.00 | 0.00 | 0.00 | 49 | 1008.2 |
| 20260504024935 | 65 | 200 | 0.0 | 0.0 | 0.00 | 0.00 | 0.00 | 50 | 1008.1 |
| 20260504024430 | 65 | 200 | 0.0 | 0.0 | 0.00 | 0.00 | 0.00 | 50 | 1008.2 |
| 20260504023929 | 66 | 198 | 0.0 | 0.0 | 0.00 | 0.00 | 0.00 | 48 | 1008.1 |
| 20260504023429 | 66 | 196 | 0.0 | 0.0 | 0.00 | 0.00 | 0.00 | 47 | 1008.1 |
| 20260504022930 | 67 | 196 | 0.0 | 0.0 | 0.00 | 0.00 | 0.00 | 45 | 1008.2 |
| 20260504022430 | 67 | 196 | 0.0 | 0.0 | 0.00 | 0.00 | 0.00 | 45 | 1008.2 |
| 20260504021929 | 67 | 200 | 0.0 | 0.0 | 0.00 | 0.00 | 0.00 | 44 | 1008.2 |
| 20260504021430 | 68 | 200 | 0.0 | 0.0 | 0.00 | 0.00 | 0.00 | 44 | 1008.1 |
| 20260504020930 | 69 | 200 | 0.0 | 0.0 | 0.00 | 0.00 | 0.00 | 44 | 1008.2 |
| 20260504020429 | 69 | 200 | 0.0 | 0.0 | 0.00 | 0.00 | 0.00 | 43 | 1008.2 |
| 20260504015932 | 70 | 200 | 0.0 | 0.0 | 0.00 | 0.00 | 0.00 | 43 | 1008.2 |
| 20260504015429 | 71 | 200 | 0.0 | 0.9 | 0.00 | 0.00 | 0.00 | 42 | 1008.2 |
| 20260504013929 | 75 | 207 | 0.0 | 1.7 | 0.00 | 0.00 | 0.00 | 37 | 1008.3 |
| 20260504012930 | 76 | 220 | 0.0 | 1.7 | 0.00 | 0.00 | 0.00 | 36 | 1008.2 |
| 20260504011930 | 75 | 211 | 0.0 | 0.9 | 0.00 | 0.00 | 0.00 | 36 | 1008.3 |
| 20260504011428 | 75 | 80 | 0.0 | 1.7 | 0.00 | 0.00 | 0.00 | 37 | 1008.3 |
| 20260504010925 | 75 | 152 | 0.9 | 1.7 | 0.00 | 0.00 | 0.00 | 35 | 1008.3 |
| 20260504010418 | 75 | 196 | 0.0 | 1.7 | 0.00 | 0.00 | 0.00 | 36 | 1008.2 |
| 20260504005911 | 76 | 246 | 0.0 | 0.9 | 0.00 | 0.00 | 0.00 | 36 | 1008.4 |
| 20260504005409 | 76 | 244 | 0.0 | 0.9 | 0.00 | 0.00 | 0.00 | 35 | 1008.4 |
| 20260504004910 | 76 | 264 | 0.9 | 2.6 | 0.00 | 0.00 | 0.00 | 34 | 1008.4 |
| 20260504004410 | 76 | 242 | 0.0 | 2.6 | 0.00 | 0.00 | 0.00 | 34 | 1008.5 |
| 20260504003911 | 76 | 34 | 0.0 | 1.7 | 0.00 | 0.00 | 0.00 | 34 | 1008.5 |
| 20260504003407 | 75 | 203 | 0.9 | 1.7 | 0.00 | 0.00 | 0.00 | 35 | 1008.6 |
| 20260504002905 | 74 | 236 | 0.0 | 2.6 | 0.00 | 0.00 | 0.00 | 35 | 1008.5 |
| 20260504002401 | 74 | 257 | 0.0 | 2.6 | 0.00 | 0.00 | 0.00 | 36 | 1008.6 |
| 20260504001902 | 75 | 229 | 0.0 | 0.9 | 0.00 | 0.00 | 0.00 | 33 | 1008.6 |
| 20260504001401 | 76 | 247 | 0.9 | 1.7 | 0.00 | 0.00 | 0.00 | 36 | 1008.7 |
| 20260504000902 | 77 | 222 | 0.9 | 1.7 | 0.00 | 0.00 | 0.00 | 33 | 1008.7 |
| 20260504000401 | 78 | 219 | 0.9 | 1.7 | 0.00 | 0.00 | 0.00 | 31 | 1008.6 |
| 20260503235902 | 79 | 238 | 0.9 | 3.5 | 0.00 | 0.00 | 0.00 | 32 | 1008.7 |